Hourly Data Report for August 05, 2004

TORONTO CITY
ONTARIO

43°40'00.000" N
79°24'00.000" W
112.50 m
6158355
71508
XTO

Download Data

Hourly Data (August 2004)
Hourly Data Report for August 5, 2004
TIME
LST
Temp Definition
°C
Dew Point Definition
°C
Rel Hum Definition
%
Precip. Amount Definition
mm

Wind Dir Definition
10's deg

Wind Spd Definition
km/h
Visibility Definition
km
Stn Press Definition
kPa
Hmdx Definition


Wind Chill Definition


Weather Definition


00:00 20.0 13.3 65   LegendMM LegendMM LegendMM 99.75     LegendNANA
01:00 19.3 12.0 63   LegendMM LegendMM LegendMM 99.77     LegendNANA
02:00 17.8 11.5 67   LegendMM LegendMM LegendMM 99.82     LegendNANA
03:00 17.1 11.1 68   LegendMM LegendMM LegendMM 99.84     LegendNANA
04:00 16.3 11.0 71   LegendMM LegendMM LegendMM 99.92     LegendNANA
05:00 15.8 10.6 71   LegendMM LegendMM LegendMM 100.00     LegendNANA
06:00 15.4 10.6 73   LegendMM LegendMM LegendMM 100.06     LegendNANA
07:00 15.7 11.4 76   LegendMM LegendMM LegendMM 100.12     LegendNANA
08:00 16.6 11.6 72   LegendMM LegendMM LegendMM 100.15     LegendNANA
09:00 17.7 10.9 64   LegendMM LegendMM LegendMM 100.18     LegendNANA
10:00 18.4 10.1 58   LegendMM LegendMM LegendMM 100.18     LegendNANA
11:00 18.7 8.2 50   LegendMM LegendMM LegendMM 100.18     LegendNANA
12:00 18.7 7.0 46   LegendMM LegendMM LegendMM 100.16     LegendNANA
13:00 19.4 6.5 43   LegendMM LegendMM LegendMM 100.17     LegendNANA
14:00 18.8 7.3 47   LegendMM LegendMM LegendMM 100.19     LegendNANA
15:00 18.9 7.4 47   LegendMM LegendMM LegendMM 100.17     LegendNANA
16:00 18.1 8.5 53   LegendMM LegendMM LegendMM 100.17     LegendNANA
17:00 18.0 8.3 53   LegendMM LegendMM LegendMM 100.17     LegendNANA
18:00 17.7 8.7 56   LegendMM LegendMM LegendMM 100.17     LegendNANA
19:00 17.4 9.0 58   LegendMM LegendMM LegendMM 100.20     LegendNANA
20:00 17.2 9.0 58   LegendMM LegendMM LegendMM 100.21     LegendNANA
21:00 16.8 8.9 60   LegendMM LegendMM LegendMM 100.27     LegendNANA
22:00 15.8 9.3 65   LegendMM LegendMM LegendMM 100.28     LegendNANA
23:00 15.4 9.2 67   LegendMM LegendMM LegendMM 100.27     LegendNANA

Notes on Data Quality.

Legend

  • E = Estimated
  • M = Missing
  • NA = Not Available*
  • [empty] = Indicates an unobserved value
Date modified: